Location: Staunton
(38.1490°N, 79.0720°W)
Time: 17:46:42
(UTC-04:00)

ISS - Pass Details

Date: 27 March 2017
Orbit: 399 x 409 km, 51.6° (Epoch: 26 March)

Event Time Altitude Azimuth Distance (km) Brightness Sun altitude
Rises 21:58:24 0° 261° (W) 2,304 0.7 -27.7°
Reaches altitude 10° 22:00:44 10° 276° (W) 1,450 -0.2 -28.1°
Enters shadow 22:02:03 18° 296° (WNW) 1,075 -0.9 -28.3°
